14770 registros encontrados.
Tendencias del filtro actual

Gráficas del histórico

Cargando datos para la gráfica…
Temperatura y humedad
Batería y lluvia
ID Dispositivo Fecha Hora sysDT Temperatura 1 Temperatura 2 Humedad Batería Nivel de lluvia
13770 ciricote19 2026-05-07 14:57:31 2026-05-07 20:57:31 28.6 28.7 63.5 4.03 0.0
13769 ciricote19 2026-05-07 14:56:31 2026-05-07 20:56:31 28.6 28.8 63.5 4.03 0.0
13768 ciricote19 2026-05-07 14:55:31 2026-05-07 20:55:31 28.6 28.8 63.5 4.03 0.0
13767 ciricote19 2026-05-07 14:54:31 2026-05-07 20:54:31 28.7 28.8 63.5 4.03 0.0
13766 ciricote19 2026-05-07 14:53:31 2026-05-07 20:53:31 28.8 28.9 64.0 4.03 0.0
13765 ciricote19 2026-05-07 14:52:31 2026-05-07 20:52:31 28.8 28.9 64.0 4.03 0.0
13764 ciricote19 2026-05-07 14:51:31 2026-05-07 20:51:31 28.8 28.9 64.0 4.03 0.0
13763 ciricote19 2026-05-07 14:50:31 2026-05-07 20:50:31 28.9 28.9 64.0 4.03 0.0
13762 ciricote19 2026-05-07 14:49:31 2026-05-07 20:49:31 29.0 29.0 65.0 4.03 0.0
13761 ciricote19 2026-05-07 14:48:31 2026-05-07 20:48:31 29.0 29.0 65.0 4.03 0.0
13760 ciricote19 2026-05-07 14:46:31 2026-05-07 20:46:31 29.1 29.0 66.0 4.03 0.0
13759 ciricote1 2026-05-07 14:46:11 2026-05-07 20:46:11 40.3 40.7 36.0 4.23 0.0
13758 ciricote11 2026-05-07 14:46:03 2026-05-07 20:46:03 42.8 41.3 33.0 4.08 0.0
13757 ciricote12 2026-05-07 14:45:43 2026-05-07 20:45:43 40.4 40.6 33.5 4.11 50.0
13756 ciricote19 2026-05-07 14:45:31 2026-05-07 20:45:31 29.1 29.0 66.0 4.03 0.0
13755 ciricote19 2026-05-07 14:43:31 2026-05-07 20:43:31 29.1 29.0 66.0 4.03 0.0
13754 ciricote19 2026-05-07 14:42:31 2026-05-07 20:42:31 29.1 29.1 66.5 4.03 0.0
13753 ciricote19 2026-05-07 14:41:31 2026-05-07 20:41:31 29.1 29.1 65.5 4.05 0.0
13752 ciricote19 2026-05-07 14:40:31 2026-05-07 20:40:31 29.1 29.1 65.0 4.03 0.0
13751 ciricote19 2026-05-07 14:39:31 2026-05-07 20:39:31 29.2 29.1 64.0 4.05 0.0
13750 ciricote19 2026-05-07 14:38:31 2026-05-07 20:38:31 29.3 29.1 63.5 4.03 0.0
13749 ciricote19 2026-05-07 14:37:31 2026-05-07 20:37:31 29.3 29.1 64.5 4.03 0.0
13748 ciricote19 2026-05-07 14:36:31 2026-05-07 20:36:31 29.3 29.0 64.0 4.03 0.0
13747 ciricote19 2026-05-07 14:35:31 2026-05-07 20:35:31 29.3 29.0 63.5 4.03 0.0
13746 ciricote19 2026-05-07 14:34:31 2026-05-07 20:34:31 29.3 29.0 63.5 4.05 0.0
13745 ciricote19 2026-05-07 14:33:31 2026-05-07 20:33:31 29.3 28.9 63.0 4.05 0.0
13744 ciricote19 2026-05-07 14:32:31 2026-05-07 20:32:31 29.2 29.0 63.5 4.05 0.0
13743 ciricote19 2026-05-07 14:31:31 2026-05-07 20:31:31 29.2 28.9 63.0 4.03 0.0
13742 ciricote1 2026-05-07 14:31:11 2026-05-07 20:31:11 40.3 40.6 37.0 4.23 0.0
13741 ciricote11 2026-05-07 14:31:03 2026-05-07 20:31:03 42.4 41.2 34.5 4.08 0.0
13740 ciricote12 2026-05-07 14:30:43 2026-05-07 20:30:43 40.1 40.4 34.5 4.11 50.0
13739 ciricote19 2026-05-07 14:30:31 2026-05-07 20:30:31 29.2 28.9 63.0 4.05 0.0
13738 ciricote19 2026-05-07 14:29:31 2026-05-07 20:29:31 29.1 28.8 63.0 4.03 0.0
13737 ciricote19 2026-05-07 14:28:31 2026-05-07 20:28:31 29.1 28.8 63.5 4.05 0.0
13736 ciricote19 2026-05-07 14:27:31 2026-05-07 20:27:31 29.1 28.8 63.5 4.03 0.0
13735 ciricote19 2026-05-07 14:26:31 2026-05-07 20:26:31 29.1 28.8 63.5 4.03 0.0
13734 ciricote19 2026-05-07 14:25:31 2026-05-07 20:25:31 29.0 28.7 63.5 4.03 0.0
13733 ciricote19 2026-05-07 14:24:31 2026-05-07 20:24:31 29.0 28.7 63.5 4.05 0.0
13732 ciricote19 2026-05-07 14:23:31 2026-05-07 20:23:31 29.0 28.7 64.0 4.03 0.0
13731 ciricote19 2026-05-07 14:22:31 2026-05-07 20:22:31 28.9 28.6 64.0 4.05 0.0
13730 ciricote19 2026-05-07 14:21:31 2026-05-07 20:21:31 28.9 28.5 64.0 4.03 0.0
13729 ciricote19 2026-05-07 14:20:31 2026-05-07 20:20:31 28.8 28.5 64.0 4.03 0.0
13728 ciricote19 2026-05-07 14:19:31 2026-05-07 20:19:31 28.8 28.4 64.0 4.05 0.0
13727 ciricote19 2026-05-07 14:18:31 2026-05-07 20:18:31 28.8 28.3 64.5 4.03 0.0
13726 ciricote19 2026-05-07 14:17:31 2026-05-07 20:17:31 28.7 28.4 64.5 4.05 0.0
13725 ciricote19 2026-05-07 14:16:31 2026-05-07 20:16:31 28.6 28.3 64.5 4.03 0.0
13724 ciricote1 2026-05-07 14:16:11 2026-05-07 20:16:11 40.2 40.7 37.0 4.23 0.0
13723 ciricote11 2026-05-07 14:16:03 2026-05-07 20:16:03 41.5 40.9 35.0 4.08 0.0
13722 ciricote12 2026-05-07 14:15:43 2026-05-07 20:15:43 40.3 40.7 34.0 4.11 50.0
13721 ciricote19 2026-05-07 14:15:31 2026-05-07 20:15:31 28.6 28.2 64.5 4.03 0.0
13720 ciricote19 2026-05-07 14:14:31 2026-05-07 20:14:31 28.5 28.3 64.5 4.03 0.0
13719 ciricote19 2026-05-07 14:13:31 2026-05-07 20:13:31 28.5 28.3 64.5 4.03 0.0
13718 ciricote19 2026-05-07 14:12:31 2026-05-07 20:12:31 28.4 28.2 64.5 4.03 0.0
13717 ciricote19 2026-05-07 14:11:31 2026-05-07 20:11:31 28.3 28.2 64.0 4.03 0.0
13716 ciricote19 2026-05-07 14:10:31 2026-05-07 20:10:31 28.3 28.2 64.0 4.05 0.0
13715 ciricote19 2026-05-07 14:09:31 2026-05-07 20:09:31 28.2 28.2 64.0 4.03 0.0
13714 ciricote19 2026-05-07 14:08:31 2026-05-07 20:08:31 28.2 28.3 63.5 4.05 0.0
13713 ciricote19 2026-05-07 14:07:31 2026-05-07 20:07:31 28.1 28.3 63.0 4.03 0.0
13712 ciricote19 2026-05-07 14:06:31 2026-05-07 20:06:31 28.1 28.4 63.0 4.03 0.0
13711 ciricote19 2026-05-07 14:05:31 2026-05-07 20:05:31 28.2 28.6 62.5 4.05 0.0
13710 ciricote19 2026-05-07 14:04:31 2026-05-07 20:04:31 28.3 28.8 62.0 4.03 0.0
13709 ciricote19 2026-05-07 14:03:31 2026-05-07 20:03:31 28.3 28.9 62.0 4.03 0.0
13708 ciricote19 2026-05-07 14:02:31 2026-05-07 20:02:31 28.3 29.1 62.0 4.03 0.0
13707 ciricote19 2026-05-07 14:01:31 2026-05-07 20:01:31 28.4 29.3 61.5 4.03 0.0
13706 ciricote1 2026-05-07 14:01:11 2026-05-07 20:01:11 40.0 40.6 38.5 4.23 0.0
13705 ciricote11 2026-05-07 14:01:03 2026-05-07 20:01:03 41.6 41.4 36.0 4.08 0.0
13704 ciricote12 2026-05-07 14:00:43 2026-05-07 20:00:43 40.3 40.9 34.5 4.11 50.0
13703 ciricote19 2026-05-07 14:00:31 2026-05-07 20:00:31 28.5 29.5 61.0 4.05 0.0
13702 ciricote19 2026-05-07 13:59:31 2026-05-07 19:59:31 28.6 29.7 60.5 4.03 0.0
13701 ciricote19 2026-05-07 13:58:31 2026-05-07 19:58:31 28.6 30.0 60.5 4.03 0.0
13700 ciricote19 2026-05-07 13:57:31 2026-05-07 19:57:31 28.8 30.2 60.0 4.03 0.0
13699 ciricote19 2026-05-07 13:56:31 2026-05-07 19:56:31 28.9 30.5 59.5 4.03 0.0
13698 ciricote19 2026-05-07 13:55:31 2026-05-07 19:55:31 29.0 30.7 58.5 4.03 0.0
13697 ciricote19 2026-05-07 13:54:31 2026-05-07 19:54:31 29.1 30.9 57.5 4.03 0.0
13696 ciricote19 2026-05-07 13:53:31 2026-05-07 19:53:31 29.2 31.1 58.0 4.03 0.0
13695 ciricote19 2026-05-07 13:52:31 2026-05-07 19:52:31 29.4 31.4 57.5 4.03 0.0
13694 ciricote19 2026-05-07 13:51:31 2026-05-07 19:51:31 29.5 31.5 57.5 4.03 0.0
13693 ciricote19 2026-05-07 13:50:31 2026-05-07 19:50:31 29.8 31.6 57.5 4.03 0.0
13692 ciricote19 2026-05-07 13:49:31 2026-05-07 19:49:31 30.1 31.5 57.5 4.03 0.0
13691 ciricote19 2026-05-07 13:48:31 2026-05-07 19:48:31 30.1 31.4 59.0 4.03 0.0
13690 ciricote19 2026-05-07 13:47:31 2026-05-07 19:47:31 29.9 31.3 60.0 4.03 0.0
13689 ciricote19 2026-05-07 13:46:31 2026-05-07 19:46:31 29.9 31.2 60.0 4.03 0.0
13688 ciricote1 2026-05-07 13:46:11 2026-05-07 19:46:11 39.6 40.0 39.5 4.23 0.0
13687 ciricote12 2026-05-07 13:46:06 2026-05-07 19:46:06 40.1 40.1 37.0 4.11 50.0
13686 ciricote11 2026-05-07 13:46:03 2026-05-07 19:46:03 40.1 40.4 36.5 4.08 0.0
13685 ciricote19 2026-05-07 13:45:31 2026-05-07 19:45:31 30.0 30.9 60.0 4.03 0.0
13684 ciricote19 2026-05-07 13:44:31 2026-05-07 19:44:31 30.3 30.6 62.0 4.03 0.0
13683 ciricote19 2026-05-07 13:43:31 2026-05-07 19:43:31 30.0 30.2 62.5 4.03 0.0
13682 ciricote19 2026-05-07 13:42:31 2026-05-07 19:42:31 29.8 29.9 63.0 4.03 0.0
13681 ciricote19 2026-05-07 13:41:31 2026-05-07 19:41:31 29.5 29.6 63.5 4.03 0.0
13680 ciricote19 2026-05-07 13:40:31 2026-05-07 19:40:31 29.1 29.2 65.0 4.03 0.0
13679 ciricote19 2026-05-07 13:39:31 2026-05-07 19:39:31 28.8 28.9 64.0 4.05 0.0
13678 ciricote19 2026-05-07 13:38:31 2026-05-07 19:38:31 28.7 28.6 66.0 4.05 0.0
13677 ciricote19 2026-05-07 13:37:31 2026-05-07 19:37:31 28.3 28.4 67.0 4.03 0.0
13676 ciricote19 2026-05-07 13:36:31 2026-05-07 19:36:31 28.1 28.3 65.0 4.03 0.0
13675 ciricote19 2026-05-07 13:35:31 2026-05-07 19:35:31 28.1 28.4 65.0 4.05 0.0
13674 ciricote19 2026-05-07 13:34:31 2026-05-07 19:34:31 28.1 28.5 64.0 4.03 0.0
13673 ciricote19 2026-05-07 13:33:31 2026-05-07 19:33:31 28.2 28.7 63.5 4.03 0.0
13672 ciricote19 2026-05-07 13:32:31 2026-05-07 19:32:31 28.3 28.9 63.0 4.03 0.0
13671 ciricote19 2026-05-07 13:31:31 2026-05-07 19:31:31 28.3 29.1 63.5 4.03 0.0
13670 ciricote12 2026-05-07 13:31:06 2026-05-07 19:31:06 40.1 40.1 36.5 4.09 50.0
13669 ciricote11 2026-05-07 13:31:03 2026-05-07 19:31:03 41.4 41.1 35.5 4.08 0.0
13668 ciricote1 2026-05-07 13:30:48 2026-05-07 19:30:48 40.0 40.5 38.5 4.23 0.0
13667 ciricote19 2026-05-07 13:30:31 2026-05-07 19:30:31 28.5 29.2 63.0 4.03 0.0
13666 ciricote19 2026-05-07 13:29:31 2026-05-07 19:29:31 28.5 29.5 62.5 4.03 0.0
13665 ciricote19 2026-05-07 13:28:31 2026-05-07 19:28:31 28.6 29.6 62.0 4.03 0.0
13664 ciricote19 2026-05-07 13:27:31 2026-05-07 19:27:31 28.7 29.9 62.0 4.05 0.0
13663 ciricote19 2026-05-07 13:26:31 2026-05-07 19:26:31 28.9 30.0 62.5 4.03 0.0
13662 ciricote19 2026-05-07 13:25:31 2026-05-07 19:25:31 29.1 30.2 63.0 4.05 0.0
13661 ciricote19 2026-05-07 13:24:31 2026-05-07 19:24:31 29.1 30.1 63.0 4.03 0.0
13660 ciricote19 2026-05-07 13:23:31 2026-05-07 19:23:31 29.1 30.2 62.5 4.05 0.0
13659 ciricote19 2026-05-07 13:22:31 2026-05-07 19:22:31 29.1 30.1 62.0 4.03 0.0
13658 ciricote19 2026-05-07 13:21:31 2026-05-07 19:21:31 29.1 30.1 61.5 4.03 0.0
13657 ciricote19 2026-05-07 13:20:31 2026-05-07 19:20:31 29.2 30.2 63.0 4.03 0.0
13656 ciricote19 2026-05-07 13:19:31 2026-05-07 19:19:31 29.3 30.0 63.0 4.03 0.0
13655 ciricote19 2026-05-07 13:18:31 2026-05-07 19:18:31 29.3 29.8 62.5 4.03 0.0
13654 ciricote19 2026-05-07 13:17:31 2026-05-07 19:17:31 29.2 29.6 63.5 4.05 0.0
13653 ciricote19 2026-05-07 13:16:31 2026-05-07 19:16:31 29.1 29.4 64.5 4.03 0.0
13652 ciricote12 2026-05-07 13:16:06 2026-05-07 19:16:06 39.8 39.2 38.5 4.09 50.0
13651 ciricote11 2026-05-07 13:16:03 2026-05-07 19:16:03 40.1 40.0 38.5 4.06 0.0
13650 ciricote1 2026-05-07 13:15:48 2026-05-07 19:15:48 40.5 39.8 41.0 4.23 0.0
13649 ciricote19 2026-05-07 13:15:31 2026-05-07 19:15:31 29.0 29.2 65.0 4.05 0.0
13648 ciricote19 2026-05-07 13:14:31 2026-05-07 19:14:31 28.8 28.9 65.5 4.03 0.0
13647 ciricote19 2026-05-07 13:13:31 2026-05-07 19:13:31 28.6 28.5 66.5 4.03 0.0
13646 ciricote19 2026-05-07 13:12:31 2026-05-07 19:12:31 28.5 28.2 68.0 4.03 0.0
13645 ciricote19 2026-05-07 13:11:31 2026-05-07 19:11:31 28.1 27.9 68.0 4.03 0.0
13644 ciricote19 2026-05-07 13:10:31 2026-05-07 19:10:31 28.0 27.7 68.5 4.05 0.0
13643 ciricote19 2026-05-07 13:09:31 2026-05-07 19:09:31 27.8 27.4 69.5 4.03 0.0
13642 ciricote19 2026-05-07 13:08:31 2026-05-07 19:08:31 27.5 27.3 69.5 4.05 0.0
13641 ciricote19 2026-05-07 13:07:31 2026-05-07 19:07:31 27.2 27.2 70.0 4.05 0.0
13640 ciricote19 2026-05-07 13:06:31 2026-05-07 19:06:31 27.0 27.1 67.0 4.03 0.0
13639 ciricote19 2026-05-07 13:05:31 2026-05-07 19:05:31 26.8 27.0 67.5 4.03 0.0
13638 ciricote19 2026-05-07 13:04:31 2026-05-07 19:04:31 26.8 27.0 67.5 4.05 0.0
13637 ciricote19 2026-05-07 13:03:31 2026-05-07 19:03:31 26.6 27.0 66.5 4.03 0.0
13636 ciricote19 2026-05-07 13:02:31 2026-05-07 19:02:31 26.6 26.9 66.0 4.03 0.0
13635 ciricote19 2026-05-07 13:01:31 2026-05-07 19:01:31 26.6 27.0 66.5 4.05 0.0
13634 ciricote11 2026-05-07 13:01:09 2026-05-07 19:01:10 39.3 39.5 39.5 4.06 0.0
13633 ciricote12 2026-05-07 13:01:06 2026-05-07 19:01:06 38.9 38.9 39.0 4.09 50.0
13632 ciricote1 2026-05-07 13:00:48 2026-05-07 19:00:48 39.8 39.3 41.0 4.23 0.0
13631 ciricote19 2026-05-07 13:00:31 2026-05-07 19:00:31 26.6 26.9 66.0 4.03 0.0
13630 ciricote19 2026-05-07 12:59:31 2026-05-07 18:59:31 26.7 26.9 66.0 4.03 0.0
13629 ciricote19 2026-05-07 12:58:31 2026-05-07 18:58:31 26.6 27.0 66.5 4.05 0.0
13628 ciricote19 2026-05-07 12:57:31 2026-05-07 18:57:31 26.7 26.9 66.0 4.03 0.0
13627 ciricote19 2026-05-07 12:56:31 2026-05-07 18:56:31 26.6 26.9 66.0 4.05 0.0
13626 ciricote19 2026-05-07 12:55:31 2026-05-07 18:55:31 26.6 26.9 66.0 4.03 0.0
13625 ciricote19 2026-05-07 12:54:31 2026-05-07 18:54:31 26.6 26.9 66.0 4.03 0.0
13624 ciricote19 2026-05-07 12:53:31 2026-05-07 18:53:31 26.6 27.0 66.5 4.05 0.0
13623 ciricote19 2026-05-07 12:52:31 2026-05-07 18:52:31 26.6 26.9 66.0 4.03 0.0
13622 ciricote19 2026-05-07 12:51:31 2026-05-07 18:51:31 26.6 26.9 66.0 4.03 0.0
13621 ciricote19 2026-05-07 12:50:31 2026-05-07 18:50:31 26.6 26.9 66.5 4.05 0.0
13620 ciricote19 2026-05-07 12:49:31 2026-05-07 18:49:31 26.6 26.9 66.5 4.05 0.0
13619 ciricote19 2026-05-07 12:48:31 2026-05-07 18:48:31 26.6 26.9 66.5 4.03 0.0
13618 ciricote19 2026-05-07 12:47:31 2026-05-07 18:47:31 26.6 26.9 66.5 4.03 0.0
13617 ciricote19 2026-05-07 12:46:31 2026-05-07 18:46:31 26.6 26.8 66.5 4.05 0.0
13616 ciricote11 2026-05-07 12:46:09 2026-05-07 18:46:10 39.2 39.0 41.5 4.06 0.0
13615 ciricote12 2026-05-07 12:46:06 2026-05-07 18:46:06 38.6 38.4 41.5 4.09 50.0
13614 ciricote1 2026-05-07 12:45:55 2026-05-07 18:45:55 38.8 38.8 43.5 4.23 0.0
13613 ciricote19 2026-05-07 12:45:31 2026-05-07 18:45:31 26.6 26.9 66.5 4.03 0.0
13612 ciricote19 2026-05-07 12:44:31 2026-05-07 18:44:31 26.6 26.9 66.5 4.03 0.0
13611 ciricote19 2026-05-07 12:43:31 2026-05-07 18:43:31 26.6 26.9 66.5 4.03 0.0
13610 ciricote19 2026-05-07 12:42:31 2026-05-07 18:42:31 26.6 26.9 66.5 4.03 0.0
13609 ciricote19 2026-05-07 12:41:31 2026-05-07 18:41:31 26.5 26.8 66.5 4.03 0.0
13608 ciricote19 2026-05-07 12:40:31 2026-05-07 18:40:31 26.5 26.8 66.0 4.05 0.0
13607 ciricote19 2026-05-07 12:39:31 2026-05-07 18:39:31 26.5 26.8 66.0 4.03 0.0
13606 ciricote19 2026-05-07 12:38:31 2026-05-07 18:38:31 26.6 26.7 66.5 4.03 0.0
13605 ciricote19 2026-05-07 12:37:31 2026-05-07 18:37:31 26.5 26.8 66.5 4.03 0.0
13604 ciricote19 2026-05-07 12:36:31 2026-05-07 18:36:31 26.5 26.8 66.5 4.05 0.0
13603 ciricote19 2026-05-07 12:35:31 2026-05-07 18:35:31 26.5 26.8 66.5 4.03 0.0
13602 ciricote19 2026-05-07 12:34:31 2026-05-07 18:34:31 26.5 26.7 66.5 4.05 0.0
13601 ciricote19 2026-05-07 12:33:31 2026-05-07 18:33:31 26.5 26.7 66.5 4.05 0.0
13600 ciricote19 2026-05-07 12:32:31 2026-05-07 18:32:31 26.5 26.7 66.5 4.05 0.0
13599 ciricote19 2026-05-07 12:31:31 2026-05-07 18:31:31 26.5 26.7 66.5 4.05 0.0
13598 ciricote11 2026-05-07 12:31:10 2026-05-07 18:31:10 38.0 38.6 42.0 4.06 0.0
13597 ciricote12 2026-05-07 12:31:06 2026-05-07 18:31:06 38.0 38.2 42.0 4.09 50.0
13596 ciricote1 2026-05-07 12:30:55 2026-05-07 18:30:55 38.1 38.5 44.0 4.23 0.0
13595 ciricote19 2026-05-07 12:30:31 2026-05-07 18:30:31 26.5 26.8 66.5 4.05 0.0
13594 ciricote19 2026-05-07 12:28:31 2026-05-07 18:28:31 26.5 26.7 66.0 4.03 0.0
13593 ciricote19 2026-05-07 12:27:31 2026-05-07 18:27:31 26.5 26.7 66.0 4.05 0.0
13592 ciricote19 2026-05-07 12:26:31 2026-05-07 18:26:31 26.4 26.7 66.0 4.05 0.0
13591 ciricote19 2026-05-07 12:25:31 2026-05-07 18:25:31 26.4 26.7 66.0 4.05 0.0
13590 ciricote19 2026-05-07 12:24:31 2026-05-07 18:24:31 26.3 26.7 66.0 4.05 0.0
13589 ciricote19 2026-05-07 12:23:31 2026-05-07 18:23:31 26.3 26.7 65.5 4.03 0.0
13588 ciricote19 2026-05-07 12:22:31 2026-05-07 18:22:31 26.3 26.6 65.0 4.03 0.0
13587 ciricote19 2026-05-07 12:21:31 2026-05-07 18:21:31 26.3 26.7 65.0 4.05 0.0
13586 ciricote19 2026-05-07 12:20:31 2026-05-07 18:20:31 26.3 26.6 65.0 4.03 0.0
13585 ciricote19 2026-05-07 12:19:31 2026-05-07 18:19:31 26.3 26.7 65.0 4.05 0.0
13584 ciricote19 2026-05-07 12:18:31 2026-05-07 18:18:31 26.3 26.7 65.5 4.03 0.0
13583 ciricote19 2026-05-07 12:17:31 2026-05-07 18:17:31 26.2 26.6 65.0 4.03 0.0
13582 ciricote19 2026-05-07 12:16:31 2026-05-07 18:16:31 26.2 26.6 65.0 4.03 0.0
13581 ciricote11 2026-05-07 12:16:09 2026-05-07 18:16:10 38.8 39.1 42.0 4.06 0.0
13580 ciricote1 2026-05-07 12:16:02 2026-05-07 18:16:02 38.3 38.9 44.0 4.23 0.0
13579 ciricote12 2026-05-07 12:15:43 2026-05-07 18:15:43 38.8 38.7 41.5 4.09 50.0
13578 ciricote19 2026-05-07 12:15:31 2026-05-07 18:15:31 26.2 26.6 65.0 4.05 0.0
13577 ciricote19 2026-05-07 12:14:31 2026-05-07 18:14:31 26.1 26.6 65.0 4.03 0.0
13576 ciricote19 2026-05-07 12:13:31 2026-05-07 18:13:31 26.2 26.6 65.0 4.03 0.0
13575 ciricote19 2026-05-07 12:12:31 2026-05-07 18:12:31 26.2 26.5 65.0 4.03 0.0
13574 ciricote19 2026-05-07 12:11:31 2026-05-07 18:11:31 26.2 26.6 65.0 4.05 0.0
13573 ciricote19 2026-05-07 12:10:31 2026-05-07 18:10:31 26.2 26.6 65.0 4.03 0.0
13572 ciricote19 2026-05-07 12:09:31 2026-05-07 18:09:31 26.2 26.6 65.0 4.03 0.0
13571 ciricote19 2026-05-07 12:08:31 2026-05-07 18:08:31 26.2 26.6 65.0 4.03 0.0
Página 6 de 74